TimeEST,TemperatureF,Dew PointF,Humidity,Sea Level PressureIn,VisibilityMPH,Wind Direction,Wind SpeedMPH,Gust SpeedMPH,PrecipitationIn,Events,Conditions,WindDirDegrees,DateUTC
12:15 AM,34.0,31.8,92,29.70,7.0,WNW,13.8,21.9,N/A,Snow,Light Snow,300,2013-03-06 05:15:00
12:35 AM,33.4,31.5,92,29.69,7.0,WNW,17.3,23.0,N/A,Snow,Light Snow,290,2013-03-06 05:35:00
12:55 AM,33.1,31.1,92,29.69,4.0,WNW,12.7,18.4,N/A,Snow,Light Snow,290,2013-03-06 05:55:00
1:15 AM,32.9,31.1,93,29.69,5.0,WNW,12.7,20.7,N/A,Snow,Light Snow,290,2013-03-06 06:15:00
1:35 AM,32.5,30.7,93,29.69,5.0,WNW,9.2,19.6,N/A,Snow,Light Snow,290,2013-03-06 06:35:00
1:55 AM,32.4,29.8,90,29.69,5.0,WNW,13.8,23.0,N/A,Snow,Light Snow,290,2013-03-06 06:55:00
2:15 AM,32.2,28.0,85,29.69,10.0,WNW,11.5,26.5,N/A,,Overcast,300,2013-03-06 07:15:00
2:35 AM,32.2,27.5,83,29.69,10.0,NW,11.5,18.4,N/A,,Overcast,310,2013-03-06 07:35:00
2:55 AM,32.0,27.3,83,29.69,7.0,NW,13.8,24.2,N/A,Snow,Light Snow,310,2013-03-06 07:55:00
3:15 AM,31.6,26.4,81,29.69,10.0,WNW,12.7,26.5,N/A,Snow,Light Snow,290,2013-03-06 08:15:00
3:35 AM,31.5,25.7,79,29.69,10.0,WNW,12.7,23.0,N/A,,Overcast,300,2013-03-06 08:35:00
3:55 AM,31.1,25.7,80,29.69,10.0,NW,10.4,19.6,N/A,,Overcast,320,2013-03-06 08:55:00
4:15 AM,30.7,24.6,78,29.70,7.0,NW,13.8,20.7,N/A,Snow,Light Snow,320,2013-03-06 09:15:00
4:35 AM,30.6,23.9,76,29.71,10.0,WNW,9.2,23.0,N/A,Snow,Light Snow,290,2013-03-06 09:35:00
4:55 AM,30.0,23.9,78,29.72,5.0,NW,13.8,20.7,N/A,Snow,Light Snow,310,2013-03-06 09:55:00
5:15 AM,29.7,24.6,81,29.73,4.0,NW,6.9,19.6,N/A,Snow,Light Snow,310,2013-03-06 10:15:00
5:35 AM,28.9,26.4,90,29.72,2.0,West,10.4,-,N/A,Snow,Light Snow,280,2013-03-06 10:35:00
5:55 AM,28.6,26.6,92,29.73,3.0,West,8.1,-,N/A,Snow,Light Snow,280,2013-03-06 10:55:00
6:15 AM,28.8,26.6,92,29.74,4.0,West,8.1,-,N/A,Snow,Light Snow,280,2013-03-06 11:15:00
6:35 AM,28.6,26.4,92,29.75,4.0,West,10.4,-,N/A,Snow,Light Snow,280,2013-03-06 11:35:00
7:15 AM,28.4,26.4,92,29.76,5.0,West,9.2,-,N/A,Snow,Light Snow,280,2013-03-06 12:15:00
7:35 AM,28.6,26.4,92,29.77,3.0,West,11.5,17.3,N/A,Snow,Light Snow,280,2013-03-06 12:35:00
7:55 AM,28.8,26.6,92,29.78,2.5,West,11.5,-,N/A,Snow,Light Snow,280,2013-03-06 12:55:00
8:15 AM,28.9,27.1,93,29.79,1.8,West,9.2,16.1,N/A,Snow,Light Snow,280,2013-03-06 13:15:00
8:35 AM,29.1,27.5,94,29.81,1.0,WNW,9.2,-,N/A,Snow,Light Snow,290,2013-03-06 13:35:00
8:55 AM,29.3,28.0,95,29.83,1.0,WNW,9.2,18.4,N/A,Snow,Light Snow,290,2013-03-06 13:55:00
9:15 AM,29.7,28.0,94,29.83,1.0,West,10.4,-,N/A,Snow,Light Snow,280,2013-03-06 14:15:00
9:35 AM,29.8,28.2,94,29.85,1.2,WNW,10.4,16.1,N/A,Snow,Light Snow,290,2013-03-06 14:35:00
9:55 AM,30.2,28.0,92,29.86,1.5,West,10.4,18.4,N/A,Snow,Light Snow,280,2013-03-06 14:55:00
10:15 AM,30.4,28.0,91,29.87,2.5,WNW,9.2,-,N/A,Snow,Light Snow,290,2013-03-06 15:15:00
10:35 AM,30.6,27.9,90,29.89,2.5,WNW,12.7,-,N/A,Snow,Light Snow,290,2013-03-06 15:35:00
10:55 AM,30.7,27.9,89,29.90,2.5,WNW,11.5,17.3,N/A,Snow,Light Snow,290,2013-03-06 15:55:00
11:15 AM,30.7,28.0,90,29.91,2.5,West,9.2,-,N/A,Snow,Light Snow,280,2013-03-06 16:15:00
11:35 AM,30.9,28.2,90,29.92,4.0,West,10.4,-,N/A,,Overcast,280,2013-03-06 16:35:00
11:55 AM,31.1,28.4,90,29.92,4.0,WNW,10.4,16.1,N/A,,Overcast,290,2013-03-06 16:55:00
12:15 PM,31.3,28.2,88,29.93,10.0,WNW,9.2,-,N/A,,Overcast,290,2013-03-06 17:15:00
12:35 PM,31.6,28.2,87,29.94,10.0,NW,8.1,-,N/A,,Overcast,310,2013-03-06 17:35:00
12:55 PM,31.8,28.0,86,29.95,10.0,NW,9.2,-,N/A,,Overcast,310,2013-03-06 17:55:00
1:15 PM,31.8,28.0,86,29.96,10.0,NNW,6.9,-,N/A,,Overcast,330,2013-03-06 18:15:00
1:35 PM,31.8,27.7,85,29.96,10.0,NW,5.8,16.1,N/A,,Overcast,310,2013-03-06 18:35:00
2:15 PM,31.8,28.2,87,29.97,5.0,NW,10.4,19.6,N/A,,Overcast,320,2013-03-06 19:15:00
2:35 PM,31.8,27.5,84,29.97,7.0,NNW,11.5,23.0,N/A,,Overcast,330,2013-03-06 19:35:00
2:55 PM,32.0,27.1,82,29.98,10.0,NNW,10.4,20.7,N/A,,Overcast,330,2013-03-06 19:55:00
3:15 PM,32.0,27.5,83,30.00,10.0,NNW,13.8,23.0,N/A,,Overcast,330,2013-03-06 20:15:00
3:35 PM,32.0,28.2,86,30.01,10.0,NNW,10.4,17.3,N/A,,Overcast,330,2013-03-06 20:35:00
3:55 PM,31.8,28.0,86,30.02,10.0,NW,12.7,17.3,N/A,,Overcast,320,2013-03-06 20:55:00
4:15 PM,31.5,28.0,87,30.03,10.0,NW,8.1,18.4,N/A,,Overcast,320,2013-03-06 21:15:00
4:35 PM,31.3,28.4,89,30.05,5.0,NW,10.4,16.1,N/A,,Overcast,320,2013-03-06 21:35:00
4:55 PM,31.1,29.1,92,30.06,5.0,NW,8.1,-,N/A,,Overcast,310,2013-03-06 21:55:00
5:15 PM,31.1,29.3,93,30.07,4.0,NW,10.4,-,N/A,Snow,Light Snow,320,2013-03-06 22:15:00
5:35 PM,31.1,29.3,93,30.09,4.0,NNW,8.1,18.4,N/A,,Overcast,330,2013-03-06 22:35:00
6:15 PM,30.9,29.7,95,30.10,3.0,NW,6.9,-,N/A,Snow,Light Snow,310,2013-03-06 23:15:00
6:35 PM,30.9,29.8,96,30.11,3.0,NW,6.9,-,N/A,Snow,Light Snow,310,2013-03-06 23:35:00
6:55 PM,30.9,29.8,96,30.12,5.0,NW,4.6,-,N/A,Snow,Light Snow,310,2013-03-06 23:55:00
7:15 PM,30.9,29.5,94,30.12,7.0,NW,5.8,-,N/A,,Overcast,320,2013-03-07 00:15:00
7:35 PM,31.1,29.7,94,30.12,7.0,NW,4.6,-,N/A,,Overcast,310,2013-03-07 00:35:00
7:55 PM,30.9,29.5,94,30.12,10.0,NNW,6.9,-,N/A,,Overcast,330,2013-03-07 00:55:00
8:15 PM,30.9,29.3,94,30.12,10.0,NW,3.5,-,N/A,,Overcast,320,2013-03-07 01:15:00
8:35 PM,31.1,29.3,93,30.13,10.0,NNW,6.9,-,N/A,,Overcast,330,2013-03-07 01:35:00
8:55 PM,31.1,29.3,93,30.14,7.0,NNW,4.6,-,N/A,,Overcast,330,2013-03-07 01:55:00
9:15 PM,31.1,29.1,92,30.15,7.0,NW,8.1,-,N/A,,Overcast,320,2013-03-07 02:15:00
9:35 PM,31.1,29.3,93,30.15,7.0,NW,4.6,-,N/A,,Overcast,320,2013-03-07 02:35:00
9:55 PM,31.1,29.1,92,30.16,10.0,NW,8.1,-,N/A,,Overcast,310,2013-03-07 02:55:00
10:15 PM,31.1,28.9,92,30.16,10.0,NW,5.8,-,N/A,,Overcast,320,2013-03-07 03:15:00
10:35 PM,31.1,28.8,91,30.16,10.0,NNW,6.9,-,N/A,,Overcast,330,2013-03-07 03:35:00
10:55 PM,31.1,28.4,90,30.16,10.0,North,5.8,-,N/A,,Overcast,350,2013-03-07 03:55:00
11:15 PM,31.1,28.4,90,30.16,10.0,NNW,8.1,-,N/A,,Overcast,340,2013-03-07 04:15:00
11:35 PM,31.1,28.2,89,30.16,10.0,North,8.1,-,N/A,,Overcast,350,2013-03-07 04:35:00
11:55 PM,31.1,28.2,89,30.15,10.0,North,6.9,-,N/A,,Overcast,350,2013-03-07 04:55:00